User: anonymous   Login
Location: Ostrava
(49.8330°N, 18.2830°E)
Time: 12:00:22
(UTC+02:00)
Language:

Cosmos 2221 - Orbit

View from above orbital plane
View from above orbital plane
View from above satellite
View from above satellite

Ground track
Ground track

The orbit data is extracted from the following two-line orbital elements,

1 22236U 92080A   15147.81233988  .00000616  00000-0  66130-4 0  9997
2 22236 082.5105 048.5017 0016374 336.8459 023.2018 14.86910069215639
Epoch (UTC): 27 May 2015 19:29:46
Eccentricity: 0.0016374
inclination: 82.5105°
perigee height: 596 km
apogee height: 619 km
right ascension of ascending node: 48.5017°
argument of perigee: 336.8459°
revolutions per day: 14.86910069
mean anomaly at epoch: 23.2018°
orbit number at epoch: 21563

The dashed part of the orbit path shows where the satellite is in the earth's shadow,  

DLR